Overview Statistics Trail Chart Weather Telemetry Raw packets
 

This is the latest recevied weather packets stored in our database for station/object K2CAT. If no packets are shown the sender has not sent any weather packets the latest 10 day(s).

<< 60 61 62 63 64 65 66 >>
Time Temp. Humidity Pressure Rain* Wind** Luminosity Snow
1777306478 20° C 48% 1024.1 hPa 0 mm - 696 W/m² -
1777306173 20.56° C 42% 1024.2 hPa 0 mm - 694 W/m² -
1777305868 20° C 41% 1024.2 hPa 0 mm - 690 W/m² -
1777305566 20° C 43% 1024.2 hPa 0 mm - 687 W/m² -
1777305261 20.56° C 40% 1024.2 hPa 0 mm - 683 W/m² -
1777304960 20.56° C 45% 1024.3 hPa 0 mm - 677 W/m² -
1777304657 19.44° C 43% 1024.5 hPa 0 mm - 674 W/m² -
1777304354 19.44° C 46% 1024.6 hPa 0 mm - 670 W/m² -
1777304051 18.89° C 46% 1024.5 hPa 0 mm - 664 W/m² -
1777303748 19.44° C 46% 1024.7 hPa 0 mm - 658 W/m² -
1777303445 19.44° C 46% 1024.7 hPa 0 mm - 653 W/m² -
1777303142 18.89° C 44% 1024.8 hPa 0 mm - 647 W/m² -
1777302841 18.33° C 45% 1024.7 hPa 0 mm - 640 W/m² -
1777302537 18.89° C 45% 1024.6 hPa 0 mm - 630 W/m² -
1777302235 18.33° C 47% 1024.7 hPa 0 mm - 626 W/m² -
1777301932 17.78° C 47% 1024.5 hPa 0 mm - 616 W/m² -
1777301630 18.33° C 49% 1024.6 hPa 0 mm - 606 W/m² -
1777301327 17.78° C 51% 1024.7 hPa 0 mm - 598 W/m² -
1777301023 17.78° C 53% 1024.8 hPa 0 mm - 363 W/m² -
1777300721 17.22° C 51% 1024.8 hPa 0 mm - 548 W/m² -
1777300419 16.67° C 56% 1024.7 hPa 0 mm - 399 W/m² -
1777300116 16.11° C 54% 1024.9 hPa 0 mm - 211 W/m² -
1777299812 16.11° C 54% 1024.8 hPa 0 mm - 328 W/m² -
1777299511 15.56° C 58% 1024.9 hPa 0 mm - 336 W/m² -
1777299208 15° C 57% 1024.8 hPa 0 mm - 281 W/m² -

* Rain latest hour (hover to see other rain measurements)
** Current wind speed in m/s (hover to see current wind gust speed)